Miscellaneous Local Product
Issued by NWS Hastings, NE

Home | Current Version | Previous Version | Graphics & Text | Print | Product List | Glossary On
Versions: 1 2 3 4 5 6 7 8 9 10 11 12 13 14 15 16 17 18 19 20 21 22 23 24 25 26 27 28 29 30 31 32 33 34 35 36 37 38 39 40 41 42 43 44 45 46 47 48 49 50
000
AXUS43 KGID 161502
MISGRI

GID CWA HOURLY WEATHER ROUNDUP
NATIONAL WEATHER SERVICE HASTINGS NE
1000 AM CDT WED APR 16 2014

NOTE: "FAIR" INDICATES FEW OR NO CLOUDS BELOW 12,000 FEET WITH NO
SIGNIFICANT WEATHER AND/OR OBSTRUCTIONS TO VISIBILITY.

...SOUTH CENTRAL NEBRASKA...

CITY           SKY/WX    TMP DP  RH WIND       PRES   REMARKS
GRAND ISLAND   CLOUDY    50  23  34 S22G30    29.64R
HASTINGS       CLOUDY    51  21  30 S13G24    29.65R
KEARNEY        CLOUDY    46  27  46 W13G20    29.65R
ORD            CLOUDY    51  31  46 NW20G28   29.62S
YORK           CLOUDY    48  25  40 S23G35    29.67R
AURORA         CLOUDY    49  26  40 S24G30    29.65R
LEXINGTON      PTSUNNY   52  40  64 NW28G35   29.69R
HOLDREGE       CLOUDY    47  28  46 W13       29.66R
HEBRON         CLOUDY    53  22  30 S23G36    29.71R

...NEBRASKA PANHANDLE...

CITY           SKY/WX    TMP DP  RH WIND       PRES   REMARKS
CHADRON        LGT RAIN  39  36  89 NW18G25   29.85R FOG     WCI  30
ALLIANCE       CLOUDY    38  34  85 NW23G32   29.81R WCI  27
SCOTTSBLUFF    CLOUDY    43  30  60 NW26G35   29.88R
SIDNEY         SUNNY     46  30  53 NW33G40   29.83R

...WESTERN AND NORTH CENTRAL NEBRASKA...

CITY           SKY/WX    TMP DP  RH WIND       PRES   REMARKS
VALENTINE      CLOUDY    34  31  88 NW21G29   29.74R WCI  22
AINSWORTH      CLOUDY    37  32  83 NW24      29.70R WCI  25
ONEILL         PTSUNNY   42  31  66 W18       29.63R
BROKEN BOW     PTSUNNY   49  37  63 NW24G35   29.67R
IMPERIAL       MOSUNNY   48  34  58 NW31G43   29.78R
NORTH PLATTE   MOSUNNY   49  37  63 NW29G41   29.72R
MCCOOK         PTSUNNY   52  36  54 NW29G38   29.73R

...EASTERN NEBRASKA...

CITY           SKY/WX    TMP DP  RH WIND       PRES   REMARKS
NORFOLK        CLOUDY    49  25  39 S21G29    29.62R
SO SIOUX CITY  CLOUDY    51  28  41 S25G32    29.67F
TEKAMAH        CLOUDY    51  28  41 S28       29.70F
COLUMBUS       CLOUDY    50  25  37 S17G25    29.66R
ALBION         CLOUDY    47  25  41 SW9       29.63S
OMAHA EPPLEY   CLOUDY    52  27  38 S18G33    29.74F
OFFUTT AFB     CLOUDY    52  29  40 S20G29    29.75F
MILLARD        CLOUDY    50  28  42 S13G30    29.73F
LINCOLN        CLOUDY    54  24  31 S29G38    29.70S
NEBRASKA CITY  CLOUDY    52  28  40 S28G38    29.77F
BEATRICE       CLOUDY    54  24  31 S35G41    29.73F
FALLS CITY     PTSUNNY   52  29  41 S22G36    29.83F

...NORTHERN KANSAS...

CITY           SKY/WX    TMP DP  RH WIND       PRES   REMARKS
GOODLAND       MOSUNNY   49  33  54 N31G37    29.81R
HILL CITY      MOSUNNY   58  36  43 NW23G35   29.72R
PHILLIPSBURG   SUNNY     57  34  41 W17G29    29.69R
SMITH CENTER   SUNNY     54  21  28 S13       29.70R
BELOIT         SUNNY     55  21  26 S28G37    29.71S
HAYS           SUNNY     55  21  26 SW17      29.73R
RUSSELL        MOSUNNY   56  21  25 SW25G32   29.72R
CONCORDIA      PTSUNNY   54  24  31 S22G35    29.73R
SALINA         PTSUNNY   54  26  34 S28G41    29.77S
TOPEKA         SUNNY     55  28  35 S25G39    29.90R



USA.gov is the U.S. government's official web portal to all federal, state and local government web resources and services.